Wetbulb
58.16 58.16 58.50 58.87 59.25 59.87 60.24 60.65 60.90 61.07 61.26 61.48 61.78 61.36 61.18 60.71 59.54 56.98 51.80 56.45 58.40 61.95 59.24 55.13 54.82 53.94 55.17 53.41 52.41 49.88 46.28 43.16 43.21 44.13 45.83 48.62 47.69 49.02 49.60 49.17 49.41 49.57 49.77 48.86 50.70
57.92 57.77 57.82 58.06 58.41 59.12 59.79 60.28 60.63 60.89 61.08 61.17 61.48 61.48 61.01 60.41 56.12 52.64 59.25 62.74 64.31 62.30 54.29 52.56 51.42 52.10 51.83 51.64 52.00 49.35 46.03 43.41 45.37 47.01 47.12 48.09 48.09 48.79 48.43 48.21 48.43 48.52 49.19 49.48 50.46
58.26 57.78 57.52 57.61 57.93 58.53 59.28 59.75 60.26 60.78 60.86 61.11 61.31 61.31 60.42 58.95 52.06 49.88 62.12 62.45 63.80 60.25 54.46 53.91 53.51 51.46 48.98 50.49 49.78 47.47 45.41 44.74 45.27 47.25 48.15 47.76 47.82 49.18 48.05 47.00 48.40 48.38 47.82 47.87 48.91
58.58 57.91 57.68 57.65 57.84 58.14 58.72 59.35 59.99 60.52 60.51 60.92 61.28 61.01 59.46 55.70 44.36 53.75 61.97 62.08 62.97 56.18 54.60 52.58 51.55 48.89 47.39 46.02 48.79 45.58 47.00 46.73 47.70 48.31 47.49 47.06 48.78 47.65 48.28 47.34 46.62 47.17 46.80 46.98 47.01
58.50 58.07 57.89 57.79 57.79 58.09 58.54 58.99 59.65 60.18 60.36 60.91 61.31 60.37 55.69 51.94 52.22 58.46 61.10 61.76 56.61 54.35 52.91 51.62 49.36 48.40 45.42 46.34 46.90 46.39 46.63 47.15 48.38 47.99 47.47 46.72 47.04 47.09 46.10 45.91 46.31 45.92 45.84 45.50 45.73
58.47 58.07 57.93 57.94 58.08 58.25 58.45 58.81 59.37 60.03 60.16 60.65 61.02 59.17 53.11 48.42 56.97 59.64 56.30 54.12 54.23 53.56 51.88 51.86 49.91 49.72 47.19 46.43 46.05 46.67 45.82 46.51 47.16 46.96 46.64 45.60 45.29 45.82 43.79 45.89 44.71 44.54 43.86 43.84 43.55
58.62 58.18 58.04 58.20 58.45 58.54 58.51 58.62 59.15 59.70 60.24 60.03 60.23 56.40 51.76 52.39 58.26 58.30 54.59 53.50 53.92 53.03 51.05 51.56 51.62 49.38 48.95 45.50 46.80 46.00 44.33 46.57 47.18 46.00 45.64 46.47 42.77 43.50 44.93 45.46 43.73 42.78 42.84 42.31 42.17
58.71 58.31 58.05 58.12 58.35 58.38 58.43 58.61 59.24 59.59 59.63 59.88 58.93 54.22 50.93 53.19 58.84 55.81 54.73 52.98 53.33 53.14 52.17 52.28 52.22 49.69 48.16 47.67 45.56 43.88 43.92 42.71 45.38 44.80 44.33 45.22 43.51 42.46 44.38 44.86 43.32 42.19 42.12 41.67 41.28
58.47 58.13 58.15 58.24 58.16 58.04 58.19 58.40 58.62 59.36 58.69 58.47 54.39 52.70 49.21 54.45 52.02 55.76 54.21 51.77 51.14 51.08 51.49 50.94 51.49 47.86 46.76 43.86 42.35 42.10 41.55 40.18 43.07 45.01 44.10 44.03 43.50 42.93 43.53 43.80 42.57 41.65 41.05 40.82 41.16
58.35 58.17 58.27 58.35 58.17 57.95 57.92 58.74 59.29 57.53 56.10 56.34 54.40 49.63 51.34 48.52 50.03 51.59 52.11 52.47 50.01 49.94 48.96 48.65 47.43 44.86 43.16 42.69 39.00 41.26 39.12 39.39 41.20 43.29 42.95 42.72 43.74 41.91 41.80 42.97 41.91 40.41 40.06 40.11 39.89
58.38 58.28 58.44 58.40 58.29 58.05 57.91 57.43 53.08 50.74 51.78 50.16 49.62 49.26 48.61 49.05 50.62 49.09 50.61 49.44 49.30 47.83 44.29 45.21 43.36 40.42 43.35 44.72 45.12 43.33 41.40 40.80 42.12 43.17 42.01 43.06 43.76 44.06 41.08 40.75 39.75 39.63 39.42 39.14 38.46
58.47 58.44 58.50 58.49 58.55 58.19 57.23 52.85 52.49 51.00 47.15 51.50 51.15 49.90 50.32 49.71 45.22 46.89 50.25 47.07 45.52 42.87 42.97 41.21 39.87 45.42 43.56 43.79 41.94 41.40 40.62 40.53 41.75 41.97 41.15 42.45 41.14 44.07 40.12 40.23 40.32 39.30 38.81 38.39 38.14
58.62 58.20 58.31 58.38 58.10 57.14 54.36 53.72 54.08 52.42 48.04 48.67 50.07 49.66 50.43 48.72 47.34 45.98 48.46 46.52 43.67 40.63 40.77 41.84 43.19 44.05 41.89 39.09 38.73 39.78 39.45 40.56 39.85 40.39 41.00 39.74 39.97 39.51 35.86 36.51 37.12 37.43 38.25 38.40 38.04
58.71 58.10 58.16 58.29 54.86 54.45 52.59 55.37 56.16 53.02 43.34 44.96 45.90 49.06 46.83 49.23 45.26 48.35 49.56 46.88 42.55 41.12 40.75 41.47 43.53 39.91 39.48 38.80 40.28 37.28 40.80 40.54 39.40 38.14 36.49 40.17 36.04 39.04 37.55 34.98 34.83 35.34 36.73 36.38 36.21
58.47 58.22 58.29 57.78 54.52 52.23 53.58 55.55 53.23 51.65 31.96 45.37 44.47 48.37 46.50 46.75 44.89 43.04 47.14 45.13 42.39 40.57 41.68 40.88 38.88 39.44 38.87 39.67 40.33 39.53 40.94 39.96 39.09 38.26 37.01 36.97 35.51 39.79 34.43 32.98 33.61 34.84 36.17 36.49 36.29
57.89 57.93 58.07 56.83 55.38 54.10 54.01 54.67 53.21 39.32 30.67 42.33 42.50 42.11 42.80 42.79 40.92 42.38 43.56 46.48 45.67 41.56 40.87 41.42 42.00 41.86 41.88 40.00 41.55 40.15 38.55 37.10 36.52 36.91 30.99 37.25 35.47 39.94 34.38 36.27 35.21 34.97 35.20 35.30 34.90
57.36 57.23 56.68 57.40 53.20 53.14 55.50 52.37 39.26 30.92 43.18 39.86 39.30 40.93 42.79 39.13 38.47 40.38 39.50 39.77 39.69 36.09 36.83 40.25 39.71 40.65 40.75 39.46 38.76 39.65 37.58 31.52 28.97 28.44 30.42 33.63 33.80 39.76 39.30 37.64 37.44 34.44 34.69 35.22 34.73
56.95 56.70 56.29 57.76 54.23 55.19 53.86 45.48 30.46 38.31 40.46 39.48 38.59 38.83 39.49 39.04 39.15 38.71 38.46 37.93 41.53 40.48 37.94 36.25 34.94 39.21 40.95 42.19 38.97 36.99 39.34 34.13 27.66 27.03 31.47 31.67 30.00 36.93 35.53 36.66 38.98 37.37 36.45 35.53 34.10
56.67 56.94 56.40 57.06 54.21 55.00 48.47 37.83 36.41 39.15 42.70 37.55 37.61 36.83 37.00 37.14 39.08 37.64 38.42 39.39 41.49 41.10 37.85 35.70 35.96 39.37 38.12 39.48 42.01 35.84 32.60 38.59 29.45 24.27 29.44 34.84 35.81 34.22 33.88 34.16 35.61 35.37 34.73 33.39 33.51
54.81 53.79 53.27 55.55 54.76 52.33 44.79 39.79 40.51 44.44 42.51 39.72 38.22 40.11 37.11 36.87 36.56 36.66 36.65 40.94 39.82 41.90 44.71 40.18 35.36 36.27 36.73 39.77 38.47 38.36 40.06 32.23 33.66 27.15 26.75 32.22 31.78 36.53 31.53 32.58 33.61 33.53 33.27 33.51 34.00
53.02 47.42 54.06 56.11 54.37 47.56 38.76 38.48 41.83 45.45 44.26 39.36 39.37 39.33 39.07 35.81 37.84 36.21 39.10 40.34 42.06 39.42 43.12 39.97 37.59 33.36 36.00 35.20 36.19 34.73 34.00 35.05 35.95 34.07 29.60 28.33 32.69 38.65 38.33 36.16 33.57 34.47 34.84 34.78 34.12
49.93 41.65 51.26 54.55 44.08 44.99 40.35 39.77 44.52 44.09 45.66 42.96 42.40 41.39 38.01 37.04 35.04 35.80 36.50 39.04 41.80 40.55 37.19 40.80 36.95 33.19 33.44 35.91 36.14 39.05 37.32 36.90 33.17 28.22 30.89 30.78 33.53 35.48 36.83 38.44 36.84 35.84 35.75 36.08 35.41
46.07 46.08 50.06 50.54 38.76 41.16 43.22 42.29 44.22 43.10 43.39 42.77 41.71 43.15 43.17 39.17 34.93 37.92 39.77 39.95 39.91 40.29 38.93 39.65 34.99 31.77 33.41 33.13 34.42 33.41 35.38 37.35 38.81 34.87 31.24 29.84 33.41 34.47 35.72 36.30 36.49 36.52 36.77 36.34 35.65
42.46 39.44 43.79 44.50 44.81 41.84 40.77 39.23 39.94 45.04 43.85 44.38 43.55 44.23 42.18 40.17 40.61 38.28 37.84 37.97 39.00 39.25 40.21 40.57 36.01 35.05 33.41 36.16 36.56 31.74 34.39 34.92 35.35 32.40 33.08 32.35 35.51 33.01 34.02 34.75 35.74 36.60 37.48 36.97 35.62
41.35 38.49 40.26 36.53 39.61 41.23 40.74 38.27 38.67 38.94 43.63 44.44 42.04 42.34 41.10 38.03 38.36 36.82 39.58 34.75 36.75 38.95 39.06 38.24 32.48 35.79 37.27 31.99 32.35 32.57 34.10 33.58 33.10 35.29 33.10 36.15 34.73 37.03 37.47 36.95 37.72 38.04 37.38 36.21 33.94
38.86 37.09 38.27 35.82 37.11 36.84 39.04 37.50 37.08 38.40 39.87 38.89 39.62 40.44 42.27 39.37 39.37 35.52 36.73 34.77 35.12 34.91 37.00 35.99 32.12 33.26 32.86 29.11 29.76 30.25 32.04 33.95 34.66 35.89 36.07 34.03 33.96 39.79 40.60 38.70 38.89 36.82 35.94 34.24 33.70
40.41 39.23 39.02 36.42 34.87 34.60 34.69 35.23 35.75 38.66 37.88 39.02 38.08 37.57 35.28 36.44 37.33 35.13 38.60 38.44 36.38 33.94 33.04 32.11 31.27 31.43 29.25 24.66 28.39 27.94 31.87 31.68 33.09 35.11 34.98 30.44 36.86 35.02 33.63 35.49 37.39 36.44 35.46 34.05 34.61
MSLP
1020.61 1020.54 1020.54 1020.49 1020.48 1020.37 1020.22 1020.15 1019.94 1019.79 1019.54 1019.30 1019.02 1018.78 1018.54 1018.23 1017.78 1017.52 1016.71 1016.40 1016.29 1016.42 1016.45 1016.28 1016.10 1016.15 1016.04 1016.30 1016.60 1016.47 1015.40 1015.05 1015.16 1015.43 1015.34 1015.96 1015.80 1016.15 1016.44 1016.14 1016.40 1016.93 1017.63 1018.93 1019.12
1020.80 1020.71 1020.65 1020.58 1020.49 1020.42 1020.35 1020.21 1020.06 1019.92 1019.68 1019.38 1019.01 1018.61 1018.38 1018.15 1017.56 1016.79 1016.53 1016.40 1016.37 1016.45 1016.29 1016.00 1015.92 1015.95 1015.95 1016.38 1016.61 1016.13 1015.72 1015.48 1015.79 1015.84 1015.83 1016.19 1016.30 1016.32 1016.53 1016.57 1016.99 1017.79 1018.93 1019.64 1019.59
1020.83 1020.81 1020.74 1020.71 1020.63 1020.53 1020.41 1020.31 1020.16 1019.96 1019.74 1019.46 1019.12 1018.65 1018.32 1018.03 1017.34 1016.29 1016.36 1016.41 1016.49 1016.49 1016.29 1016.15 1016.12 1016.10 1016.11 1016.45 1016.62 1016.51 1015.99 1016.27 1016.34 1016.49 1016.67 1016.61 1016.67 1016.89 1016.95 1017.17 1017.70 1018.24 1019.29 1020.13 1020.14
1020.81 1020.80 1020.82 1020.75 1020.69 1020.50 1020.45 1020.29 1020.12 1019.98 1019.76 1019.42 1019.07 1018.61 1018.17 1017.75 1017.30 1016.44 1016.50 1016.48 1016.60 1016.48 1016.37 1016.29 1016.11 1016.12 1016.29 1016.42 1016.80 1016.59 1016.64 1016.66 1016.74 1017.05 1017.20 1017.08 1017.08 1017.22 1017.65 1018.56 1019.55 1020.03 1020.52 1020.82 1020.91
1020.69 1020.68 1020.77 1020.71 1020.61 1020.49 1020.41 1020.24 1020.05 1019.85 1019.69 1019.43 1019.01 1018.59 1018.01 1017.64 1016.66 1016.52 1016.63 1016.70 1016.72 1016.70 1016.46 1016.36 1016.26 1016.35 1016.28 1016.57 1016.90 1016.77 1016.78 1017.01 1017.06 1017.29 1017.45 1017.60 1017.40 1017.58 1018.51 1019.81 1020.59 1021.05 1021.32 1021.51 1021.68
1020.44 1020.49 1020.53 1020.60 1020.57 1020.43 1020.32 1020.23 1019.96 1019.76 1019.52 1019.29 1019.03 1018.71 1018.34 1017.63 1016.53 1016.54 1016.73 1016.89 1016.77 1016.77 1016.70 1016.61 1016.35 1016.60 1016.76 1016.95 1017.08 1016.99 1017.02 1016.93 1016.97 1017.07 1017.33 1017.50 1017.74 1018.21 1019.54 1020.44 1021.05 1021.53 1021.92 1022.23 1022.37
1020.20 1020.14 1020.18 1020.36 1020.37 1020.34 1020.25 1020.09 1019.91 1019.62 1019.37 1019.10 1018.92 1018.66 1018.17 1016.89 1016.49 1016.69 1016.85 1016.87 1016.93 1016.78 1016.77 1016.88 1016.79 1016.81 1017.05 1017.32 1017.57 1017.43 1017.06 1016.61 1016.34 1016.78 1017.13 1017.47 1018.03 1018.44 1019.61 1020.62 1021.24 1021.89 1022.37 1022.76 1023.01
1019.83 1019.93 1019.83 1019.95 1020.08 1020.17 1020.13 1019.96 1019.82 1019.57 1019.17 1018.97 1018.86 1018.60 1017.46 1016.73 1016.74 1016.92 1016.91 1017.05 1017.16 1017.16 1017.10 1017.20 1017.16 1017.26 1017.48 1017.84 1017.69 1017.39 1017.24 1016.34 1016.17 1016.67 1017.30 1017.63 1017.22 1018.80 1019.97 1020.61 1021.32 1022.02 1022.53 1022.95 1023.28
1019.49 1019.56 1019.65 1019.60 1019.67 1019.84 1019.93 1019.80 1019.62 1019.53 1019.22 1019.08 1018.94 1018.44 1017.23 1016.96 1016.90 1016.72 1016.84 1016.90 1017.24 1017.45 1017.58 1017.65 1017.47 1017.71 1017.97 1017.61 1017.53 1017.32 1016.35 1016.49 1016.19 1016.57 1016.93 1017.38 1017.28 1018.87 1020.07 1020.69 1021.43 1022.14 1022.68 1023.11 1023.40
1019.08 1019.04 1019.41 1019.32 1019.49 1019.65 1019.65 1019.48 1019.21 1019.56 1019.23 1019.05 1018.75 1018.84 1016.94 1016.44 1016.49 1016.74 1017.00 1017.10 1017.30 1017.52 1017.69 1017.73 1017.93 1017.77 1017.83 1017.33 1016.02 1015.88 1016.41 1016.53 1016.27 1016.54 1016.88 1017.11 1017.30 1019.00 1020.18 1020.83 1021.59 1022.41 1022.94 1023.36 1023.79
1018.46 1018.67 1018.87 1018.98 1019.32 1019.55 1019.46 1019.23 1019.36 1019.56 1018.89 1017.44 1017.05 1016.74 1016.23 1016.51 1016.60 1016.77 1016.93 1017.14 1017.36 1017.61 1017.37 1017.81 1017.47 1016.56 1015.62 1015.95 1016.05 1016.05 1016.14 1015.99 1016.20 1016.64 1017.00 1016.78 1017.02 1018.09 1020.09 1021.12 1021.87 1022.56 1023.17 1023.69 1024.24
1018.05 1018.12 1018.37 1018.65 1019.05 1019.42 1019.51 1018.99 1018.69 1018.89 1017.83 1016.76 1016.69 1016.63 1016.27 1016.16 1016.54 1016.77 1016.93 1016.92 1017.05 1017.05 1017.65 1018.12 1016.59 1015.72 1016.38 1016.51 1016.66 1016.64 1016.45 1016.30 1016.68 1016.92 1017.25 1016.77 1016.89 1017.87 1019.91 1020.85 1021.82 1022.53 1023.26 1023.92 1024.48
1017.43 1017.71 1017.79 1018.29 1018.84 1019.36 1019.13 1018.60 1018.52 1018.42 1017.93 1016.10 1015.78 1015.33 1015.30 1015.85 1015.58 1015.87 1016.43 1016.44 1016.40 1016.87 1016.83 1016.26 1016.00 1015.93 1016.54 1017.01 1017.07 1016.79 1016.59 1016.49 1016.88 1017.21 1017.41 1017.37 1016.49 1017.81 1019.94 1021.27 1022.33 1023.04 1023.62 1024.05 1024.41
1016.77 1017.14 1017.41 1018.01 1019.09 1018.76 1018.74 1018.18 1018.47 1018.63 1017.78 1015.34 1015.30 1014.41 1014.74 1014.94 1015.19 1015.17 1015.39 1015.65 1016.42 1016.07 1016.77 1016.41 1016.22 1016.63 1016.86 1016.91 1017.06 1016.76 1016.81 1017.15 1017.43 1017.65 1016.97 1017.53 1015.56 1016.70 1018.71 1020.60 1021.98 1022.97 1023.57 1024.13 1024.74
1016.31 1016.49 1016.94 1017.19 1017.60 1018.29 1017.58 1017.68 1018.76 1018.79 1017.28 1014.75 1014.82 1015.16 1014.81 1014.85 1014.86 1015.59 1015.71 1015.60 1015.21 1015.75 1016.35 1015.45 1016.23 1016.47 1016.48 1016.45 1017.00 1016.91 1017.19 1017.61 1017.90 1017.69 1017.65 1017.62 1017.75 1016.09 1018.56 1019.72 1021.01 1022.48 1023.41 1024.08 1024.71
1015.65 1015.88 1016.24 1016.74 1017.17 1017.42 1017.69 1018.00 1018.81 1018.71 1016.11 1014.75 1014.80 1014.92 1015.18 1015.22 1015.33 1015.75 1015.77 1015.70 1015.77 1015.96 1016.09 1015.93 1016.37 1016.33 1016.11 1016.80 1017.12 1017.71 1018.00 1018.49 1018.68 1018.30 1017.21 1016.58 1017.27 1014.96 1017.17 1017.49 1019.72 1021.75 1023.11 1024.00 1024.75
1015.05 1015.05 1015.60 1015.51 1015.80 1016.96 1017.46 1018.23 1018.25 1016.71 1015.49 1014.60 1014.55 1014.80 1014.73 1015.13 1015.52 1015.35 1015.40 1015.33 1015.02 1015.60 1015.42 1015.70 1015.87 1015.96 1016.21 1016.79 1017.72 1017.48 1017.69 1018.47 1018.57 1018.25 1016.12 1016.25 1016.65 1014.55 1016.36 1017.74 1018.81 1020.55 1022.24 1023.45 1024.48
1014.37 1014.55 1014.47 1014.49 1015.44 1016.00 1017.09 1017.12 1016.39 1014.95 1014.30 1014.33 1014.38 1014.82 1014.77 1014.80 1015.14 1015.25 1015.04 1014.83 1014.74 1014.39 1014.57 1014.67 1014.90 1015.13 1015.33 1015.04 1015.85 1016.66 1016.49 1016.63 1016.75 1016.93 1016.07 1016.77 1015.59 1015.05 1016.76 1018.00 1018.85 1020.66 1022.00 1023.30 1024.37
1013.76 1013.95 1013.79 1013.89 1014.88 1014.98 1015.67 1014.66 1013.65 1013.43 1013.09 1013.53 1014.33 1014.33 1014.42 1014.38 1014.63 1014.95 1014.32 1013.70 1013.26 1013.44 1013.48 1013.86 1014.24 1014.54 1014.96 1015.12 1015.35 1016.54 1016.55 1016.31 1016.80 1017.69 1016.60 1014.74 1014.75 1015.86 1017.25 1018.24 1019.22 1020.28 1021.68 1022.92 1023.92
1013.17 1013.27 1012.67 1013.43 1014.37 1014.49 1014.33 1012.58 1012.45 1012.09 1011.77 1012.44 1012.63 1013.14 1013.23 1013.59 1014.25 1014.20 1013.57 1012.05 1012.42 1012.39 1012.30 1012.96 1013.90 1014.66 1015.29 1015.43 1015.71 1015.38 1015.31 1016.38 1016.34 1016.03 1015.17 1013.74 1014.21 1014.24 1016.28 1017.41 1018.74 1019.87 1020.78 1021.96 1023.15
1012.81 1012.82 1011.91 1012.27 1013.82 1014.31 1012.92 1012.48 1011.83 1011.79 1011.25 1011.56 1011.78 1012.27 1012.65 1012.86 1012.88 1012.96 1012.15 1011.79 1011.68 1012.10 1012.53 1013.09 1013.80 1015.21 1015.49 1014.65 1014.01 1015.23 1014.95 1014.80 1014.65 1014.32 1013.82 1013.55 1012.87 1013.12 1014.25 1015.82 1017.31 1018.74 1019.89 1020.88 1022.07
1012.30 1012.47 1012.08 1012.26 1013.18 1012.33 1011.99 1012.12 1012.09 1011.26 1011.08 1011.13 1011.41 1011.73 1012.18 1012.47 1012.59 1012.68 1011.91 1011.62 1011.67 1012.28 1012.70 1012.94 1013.63 1014.19 1014.26 1014.46 1014.49 1013.82 1013.40 1013.28 1012.93 1013.67 1013.84 1013.76 1012.77 1013.71 1014.46 1015.19 1016.53 1017.67 1019.08 1020.37 1021.61
1012.21 1011.98 1012.32 1011.91 1011.48 1010.86 1010.97 1011.02 1011.11 1011.05 1010.79 1010.89 1011.18 1011.29 1011.53 1011.67 1012.15 1012.12 1012.02 1011.79 1012.13 1012.49 1012.16 1012.91 1013.86 1014.39 1014.58 1014.99 1014.75 1013.91 1013.38 1012.59 1012.44 1012.93 1012.36 1013.45 1012.51 1014.08 1014.72 1015.41 1016.38 1017.19 1018.28 1019.74 1021.25
1012.90 1012.41 1012.17 1011.56 1011.25 1010.58 1010.42 1010.63 1010.52 1010.50 1010.67 1010.49 1010.58 1010.92 1011.20 1011.03 1011.14 1011.57 1011.93 1012.18 1012.56 1012.87 1012.72 1013.01 1012.97 1012.34 1011.85 1011.53 1011.95 1013.06 1012.48 1012.53 1012.57 1012.19 1011.17 1010.61 1012.01 1013.64 1014.45 1015.17 1016.01 1016.69 1017.72 1018.63 1019.83
1013.00 1012.03 1011.74 1011.07 1010.89 1010.53 1011.04 1010.82 1010.36 1010.33 1010.44 1010.13 1009.89 1010.04 1010.41 1010.61 1010.91 1011.19 1011.82 1012.84 1013.25 1013.29 1013.31 1013.76 1013.05 1012.83 1012.20 1012.93 1012.85 1012.20 1011.79 1012.10 1011.65 1010.29 1010.93 1009.89 1011.25 1012.36 1013.19 1014.01 1014.65 1015.47 1017.04 1018.09 1019.17
1012.66 1012.25 1012.27 1011.79 1011.23 1011.20 1010.78 1009.90 1010.11 1010.45 1010.87 1010.76 1010.34 1010.35 1010.40 1010.54 1010.74 1011.23 1011.63 1012.22 1012.66 1013.84 1013.82 1013.81 1013.38 1013.40 1013.13 1013.61 1013.81 1013.20 1012.71 1011.83 1011.39 1011.11 1010.91 1011.34 1011.56 1011.98 1012.77 1013.83 1014.39 1015.16 1016.27 1016.98 1017.79
1012.76 1012.39 1011.89 1011.47 1011.50 1011.35 1010.77 1010.59 1010.63 1010.96 1011.16 1011.17 1011.55 1011.79 1011.95 1012.05 1012.12 1012.41 1012.12 1012.18 1012.79 1013.49 1014.07 1014.13 1013.92 1013.89 1014.00 1014.52 1014.38 1013.84 1011.99 1012.20 1011.74 1011.39 1011.38 1011.56 1011.71 1012.49 1013.43 1013.92 1013.85 1014.44 1015.36 1015.88 1016.56
Wind_Speed
4 4 4 5 6 7 7 8 8 9 9 11 12 11 10 10 9 2 3 1 2 5 3 4 3 3 2 4 3 1 3 4 4 6 5 3 4 3 1 3 2 3 4 5 9
2 3 3 3 4 5 7 8 8 9 10 11 13 13 12 11 3 4 2 2 1 5 3 5 4 3 4 3 2 2 2 2 1 3 4 3 3 0 3 3 3 5 7 6 6
1 1 2 3 4 4 5 6 7 8 9 10 12 13 12 6 4 1 1 1 4 1 2 2 5 2 2 1 2 2 2 3 3 3 1 2 3 2 3 4 1 1 3 6 6
3 3 3 3 4 4 5 5 6 7 9 9 11 13 13 2 5 1 1 3 4 3 3 4 3 3 2 2 1 3 3 3 3 4 4 3 1 3 4 3 4 6 5 5 7
5 4 4 4 5 5 6 6 7 7 8 9 11 12 3 1 5 3 4 5 4 3 3 3 3 3 4 3 3 3 2 3 3 5 5 2 7 4 3 4 6 7 7 7 7
6 5 5 5 6 6 6 7 8 8 8 9 10 10 1 6 3 5 5 4 4 4 4 4 3 2 4 2 4 1 2 5 5 5 5 6 2 4 4 7 6 5 7 8 9
8 7 6 6 6 7 7 7 8 8 10 9 5 2 2 11 1 5 5 1 3 3 4 2 5 3 6 4 1 0 5 6 9 3 5 7 4 6 7 6 5 5 6 6 7
9 8 7 6 6 7 8 9 9 10 9 4 2 2 7 2 3 4 4 4 3 3 3 4 3 6 1 5 2 3 3 5 4 5 3 6 3 6 6 6 4 3 4 4 7
10 9 8 6 6 6 7 9 9 8 3 1 2 3 7 3 3 3 2 5 5 3 5 4 3 3 4 5 3 4 8 6 3 3 3 7 1 8 0 7 5 3 2 3 4
11 9 9 6 6 5 6 7 5 4 1 1 1 4 5 4 4 5 2 7 3 7 5 3 3 4 4 9 10 8 7 5 7 4 5 5 9 8 1 6 5 4 3 3 4
12 10 10 7 6 3 3 1 3 5 4 8 5 3 2 4 2 3 3 6 4 3 9 4 9 14 23 20 8 4 7 8 5 2 4 13 14 12 7 6 7 6 6 5 5
12 12 11 9 7 5 1 2 3 2 9 13 10 7 4 4 4 5 7 10 8 10 8 5 16 16 1 11 12 8 11 13 7 4 5 12 16 10 10 7 8 8 8 8 8
12 12 11 11 9 6 6 6 1 0 6 6 8 9 8 11 8 14 16 6 6 11 16 16 4 9 10 8 12 15 16 13 10 1 6 7 16 12 5 5 7 7 8 9 10
13 12 12 10 6 4 5 4 5 2 7 7 8 6 6 9 9 3 13 6 6 14 9 13 5 7 10 11 13 15 12 10 9 6 11 4 10 6 9 10 11 12 12 11 11
15 14 13 19 7 7 4 7 4 2 6 3 3 2 2 9 7 2 2 2 12 10 8 6 10 12 10 9 14 4 6 8 6 10 7 9 9 4 6 12 14 14 14 13 12
17 14 14 10 3 2 8 12 5 4 11 4 3 5 7 3 2 3 6 3 2 5 2 6 1 5 5 3 5 13 8 5 2 3 10 16 14 6 8 9 17 17 16 15 14
18 14 11 8 5 11 11 5 5 6 2 7 5 8 9 7 5 6 13 14 12 10 16 10 11 4 4 6 3 6 11 3 5 6 8 0 12 11 4 7 18 23 21 19 16
13 12 9 6 11 17 6 6 9 7 10 2 4 4 10 8 6 8 9 12 16 7 4 11 8 17 15 19 11 17 14 7 7 7 2 3 9 5 3 4 10 20 20 18 17
12 5 4 7 13 11 7 12 11 10 7 12 6 6 7 6 5 8 12 10 14 20 15 10 8 4 3 4 14 8 11 1 4 1 3 7 4 4 4 6 12 21 21 20 19
4 4 9 15 15 7 10 17 11 9 9 6 15 14 13 12 13 14 14 8 9 20 9 6 5 2 5 4 1 7 12 6 5 6 7 4 6 8 11 13 16 22 23 22 20
5 4 2 18 10 5 7 8 7 11 9 10 12 8 12 11 15 10 9 5 15 14 19 6 6 4 6 12 18 8 8 5 3 5 5 3 5 2 10 18 22 22 23 23 22
3 9 2 10 8 4 10 8 4 8 11 2 4 8 10 11 9 11 13 9 9 12 18 10 1 7 11 2 2 10 11 16 8 7 5 3 5 2 2 13 19 21 22 22 21
3 3 2 4 9 13 7 9 10 8 10 8 11 12 12 11 8 15 13 4 8 14 17 12 7 4 2 3 3 10 12 15 13 3 12 8 5 1 2 10 15 18 21 20 20
1 4 4 3 4 5 9 9 8 6 9 7 7 11 15 16 15 9 10 5 6 9 3 3 6 13 15 3 6 11 15 16 15 11 11 18 7 6 7 11 15 17 20 23 21
2 4 2 4 8 11 8 5 6 7 15 16 12 22 15 12 14 14 13 3 3 6 6 7 10 16 15 3 2 3 14 20 22 28 17 16 18 14 16 16 19 18 17 20 21
3 2 1 0 2 3 8 13 18 15 5 4 8 2 15 14 10 9 12 7 7 4 9 5 5 8 13 2 1 3 7 18 21 20 17 8 9 4 7 6 10 17 19 22 22
0 1 1 2 3 6 5 6 5 3 2 2 3 2 6 4 2 1 4 3 6 7 9 8 7 6 5 2 4 7 17 13 10 12 13 15 8 6 6 12 15 16 19 22 22
Wind_Direction
42 41 31 27 15 9 10 2 2 358 355 347 340 333 328 328 307 227 260 49 172 162 175 141 106 81 82 79 41 244 195 179 178 175 151 141 188 146 340 262 69 47 58 8 344
18 10 12 12 7 359 356 355 353 350 347 342 337 333 332 333 287 265 64 285 209 165 176 175 141 118 94 91 65 273 251 189 135 169 165 152 250 216 222 199 160 126 100 37 20
294 308 323 336 341 341 344 345 342 341 343 336 332 327 328 318 287 146 17 210 159 167 91 100 106 66 99 162 127 149 246 151 189 212 203 219 235 191 230 233 92 285 61 44 43
266 284 294 306 314 321 324 329 332 335 335 331 330 326 325 265 293 113 20 147 137 129 126 124 112 117 148 208 109 233 199 202 160 183 165 210 282 231 241 58 46 58 66 55 46
237 251 276 286 295 307 314 318 321 325 325 326 329 331 328 290 260 127 106 116 128 144 178 155 172 156 204 172 174 233 205 196 210 201 231 177 238 281 175 114 98 89 72 55 47
232 245 260 276 287 296 305 310 314 315 315 319 323 319 264 260 97 145 137 135 164 169 160 177 196 172 111 181 237 142 250 269 262 242 213 219 215 196 131 139 110 91 67 51 39
236 233 248 271 282 292 300 303 307 311 311 308 304 320 235 254 119 145 153 192 163 186 167 167 143 201 146 155 135 72 281 274 236 228 216 168 175 195 137 158 123 93 79 64 48
238 242 236 246 273 289 298 303 309 314 314 303 212 212 254 71 128 149 154 97 102 70 86 125 126 98 355 124 110 235 254 267 131 170 141 213 213 145 161 190 149 113 89 71 56
238 242 242 244 255 276 294 300 304 301 333 58 220 234 258 135 173 178 180 150 113 74 65 87 65 85 141 179 215 212 259 228 283 202 144 224 231 156 40 205 178 155 119 90 79
234 230 240 237 256 272 291 287 297 291 228 227 48 263 191 203 147 130 85 141 124 131 115 116 108 183 177 195 233 211 214 222 240 165 207 205 245 171 100 191 184 177 163 126 82
226 226 224 218 228 249 315 307 231 215 225 218 178 274 106 93 153 146 148 124 121 178 194 173 201 212 213 213 241 237 216 209 207 179 240 245 253 204 181 182 186 184 171 140 96
227 215 214 204 195 158 162 226 277 27 292 237 236 255 234 200 138 180 164 176 176 199 146 170 229 228 240 205 206 218 237 243 269 237 226 262 252 224 196 214 206 181 168 152 133
227 222 204 194 166 165 209 212 50 318 263 246 207 208 199 176 207 181 179 163 191 187 196 217 194 212 192 176 196 224 231 237 254 143 230 279 262 217 180 168 163 168 152 145 135
221 216 203 162 150 152 216 219 220 275 274 231 215 237 157 149 225 155 186 162 199 214 192 242 196 154 192 209 198 229 212 231 245 242 261 203 285 202 192 183 185 169 167 153 142
223 210 192 159 141 179 195 138 118 358 252 70 125 26 142 194 115 173 193 178 205 170 180 201 174 193 196 204 190 244 148 206 226 239 272 205 262 138 172 210 193 179 171 162 152
227 211 192 193 158 128 117 112 105 194 233 224 124 159 158 186 91 111 164 69 54 160 249 273 47 203 206 93 192 133 102 88 117 216 250 230 219 199 202 218 178 176 174 168 162
231 201 183 154 184 144 138 131 217 209 89 189 184 185 198 172 169 176 175 188 190 189 223 219 223 188 176 153 86 178 155 184 224 208 251 320 212 261 214 186 184 174 175 175 168
219 210 216 194 138 146 158 187 208 216 212 121 132 129 196 157 195 176 166 200 219 205 139 206 226 194 189 215 185 194 195 196 221 206 202 137 226 234 122 137 174 175 172 169 173
209 226 222 170 158 166 176 212 204 194 191 159 130 189 206 206 217 186 203 220 207 195 200 197 239 175 207 149 171 177 213 198 100 55 261 206 223 207 151 152 164 171 171 178 180
209 220 225 150 156 195 221 230 217 196 140 167 201 201 209 195 187 198 188 199 208 199 201 193 243 204 153 136 161 199 146 178 215 221 231 213 255 234 198 184 175 180 183 182 181
189 228 127 152 154 222 233 214 210 210 183 170 202 212 229 190 207 204 221 188 205 190 194 154 228 122 155 208 185 169 189 206 215 218 221 259 226 204 199 185 185 189 188 184 183
170 220 102 145 196 194 219 188 204 206 215 149 164 218 206 192 208 214 224 239 184 150 181 196 184 205 203 85 338 236 220 192 200 182 241 312 246 188 205 189 187 188 189 187 185
230 229 193 205 222 216 198 211 206 179 196 182 203 205 210 217 212 215 224 142 161 185 173 170 190 173 224 202 175 219 205 219 234 40 201 186 215 309 181 179 189 188 188 187 186
222 229 186 208 231 229 226 216 205 206 226 205 218 203 216 220 204 206 225 189 184 207 87 237 173 197 223 199 142 199 207 200 202 223 204 230 209 193 182 187 189 192 191 189 188
210 212 295 195 225 224 216 151 223 213 218 212 216 212 204 225 212 217 214 145 188 207 149 197 225 217 246 334 309 246 191 196 208 222 217 242 228 196 191 192 197 194 189 188 191
244 206 158 138 163 164 231 248 242 235 177 265 252 324 229 235 226 208 174 175 182 168 181 182 230 185 241 128 304 260 225 210 220 230 240 245 238 153 195 177 185 192 189 193 197
196 320 143 170 190 186 196 181 206 189 198 200 179 293 274 310 69 22 22 84 135 152 180 167 157 181 181 142 161 247 214 202 202 216 216 218 232 155 178 206 212 200 194 199 200